Time,TemperatureF,DewpointF,PressureIn,WindDirection,WindDirectionDegrees,WindSpeedMPH,WindSpeedGustMPH,Humidity,HourlyPrecipIn,Conditions,Clouds,dailyrainin,SoftwareType,DateUTC
2013-04-18 00:04:00,38.7,25.1,30.29,North,350,0.0,0.0,58,0.00,RA,BKN,0.00,WeatherDisplay:10.37,2013-04-18 04:04:00,
2013-04-18 00:14:00,38.5,25.0,30.32,North,350,0.0,0.0,58,0.00,CLR,BKN,0.00,WeatherDisplay:10.37,2013-04-18 04:14:00,
2013-04-18 00:19:00,38.3,25.2,30.32,North,350,0.0,0.0,59,0.00,CLR,BKN,0.00,WeatherDisplay:10.37,2013-04-18 04:19:00,
2013-04-18 00:24:00,38.3,25.2,30.32,North,350,0.0,0.0,59,0.00,CLR,BKN,0.00,WeatherDisplay:10.37,2013-04-18 04:24:00,
2013-04-18 00:29:00,38.1,25.0,30.32,North,350,0.0,0.0,59,0.00,CLR,BKN,0.00,WeatherDisplay:10.37,2013-04-18 04:29:00,
2013-04-18 00:34:00,38.1,25.0,30.32,North,350,0.0,0.0,59,0.00,CLR,BKN,0.00,WeatherDisplay:10.37,2013-04-18 04:34:00,
2013-04-18 00:39:00,38.1,25.0,30.32,North,350,0.0,0.0,59,0.00,CLR,BKN,0.00,WeatherDisplay:10.37,2013-04-18 04:39:00,
2013-04-18 00:49:00,37.8,24.7,30.32,North,350,0.0,0.0,59,0.00,CLR,BKN,0.00,WeatherDisplay:10.37,2013-04-18 04:49:00,
2013-04-18 00:54:00,37.8,24.7,30.32,North,350,0.0,0.0,59,0.00,CLR,BKN,0.00,WeatherDisplay:10.37,2013-04-18 04:54:00,
2013-04-18 00:58:00,37.8,24.7,30.32,North,350,0.0,0.0,59,0.00,CLR,BKN,0.00,WeatherDisplay:10.37,2013-04-18 04:58:00,
2013-04-18 01:03:00,37.2,24.2,30.32,North,350,0.0,0.0,59,0.00,CLR,BKN,0.00,WeatherDisplay:10.37,2013-04-18 05:03:00,
2013-04-18 01:08:00,37.2,24.2,30.32,North,350,0.0,0.0,59,0.00,CLR,BKN,0.00,WeatherDisplay:10.37,2013-04-18 05:08:00,
2013-04-18 01:13:00,37.0,24.4,30.32,North,350,0.0,1.0,60,0.00,CLR,BKN,0.00,WeatherDisplay:10.37,2013-04-18 05:13:00,
2013-04-18 01:18:00,37.0,24.4,30.32,North,350,0.0,0.0,60,0.00,CLR,BKN,0.00,WeatherDisplay:10.37,2013-04-18 05:18:00,
2013-04-18 01:23:00,36.9,24.3,30.32,North,350,0.0,0.0,60,0.00,CLR,BKN,0.00,WeatherDisplay:10.37,2013-04-18 05:23:00,
2013-04-18 01:28:00,36.9,24.3,30.32,North,350,0.0,0.0,60,0.00,CLR,BKN,0.00,WeatherDisplay:10.37,2013-04-18 05:28:00,
2013-04-18 01:33:00,36.9,24.7,30.32,North,350,0.0,0.0,61,0.00,CLR,BKN,0.00,WeatherDisplay:10.37,2013-04-18 05:33:00,
2013-04-18 01:38:00,36.7,24.5,30.32,North,350,0.0,0.0,61,0.00,CLR,BKN,0.00,WeatherDisplay:10.37,2013-04-18 05:38:00,
2013-04-18 01:43:00,36.5,24.3,30.32,North,350,0.0,0.0,61,0.00,CLR,BKN,0.00,WeatherDisplay:10.37,2013-04-18 05:43:00,
2013-04-18 01:48:00,36.5,24.3,30.32,North,350,0.0,0.0,61,0.00,CLR,BKN,0.00,WeatherDisplay:10.37,2013-04-18 05:48:00,
2013-04-18 01:54:00,36.3,24.1,30.32,North,350,0.0,0.0,61,0.00,CLR,BKN,0.00,WeatherDisplay:10.37,2013-04-18 05:54:00,
2013-04-18 02:03:00,36.0,24.6,30.32,North,350,0.0,0.0,63,0.00,CLR,BKN,0.00,WeatherDisplay:10.37,2013-04-18 06:03:00,
2013-04-18 02:08:00,36.0,24.6,30.32,North,350,0.0,0.0,63,0.00,CLR,BKN,0.00,WeatherDisplay:10.37,2013-04-18 06:08:00,
2013-04-18 02:13:00,35.8,24.4,30.29,North,350,0.0,1.0,63,0.00,CLR,BKN,0.00,WeatherDisplay:10.37,2013-04-18 06:13:00,
2013-04-18 02:18:00,36.0,24.6,30.29,North,350,0.0,1.0,63,0.00,CLR,BKN,0.00,WeatherDisplay:10.37,2013-04-18 06:18:00,
2013-04-18 02:23:00,35.8,24.4,30.29,North,350,0.0,1.0,63,0.00,CLR,BKN,0.00,WeatherDisplay:10.37,2013-04-18 06:23:00,
2013-04-18 02:33:00,35.2,24.3,30.32,North,350,0.0,0.0,64,0.00,CLR,BKN,0.00,WeatherDisplay:10.37,2013-04-18 06:33:00,
2013-04-18 02:38:00,35.2,24.3,30.32,North,350,0.0,0.0,64,0.00,CLR,BKN,0.00,WeatherDisplay:10.37,2013-04-18 06:38:00,
2013-04-18 02:48:00,35.4,25.2,30.32,North,349,0.0,1.0,66,0.00,CLR,BKN,0.00,WeatherDisplay:10.37,2013-04-18 06:48:00,
2013-04-18 02:53:00,35.4,24.8,30.32,North,349,0.0,1.0,65,0.00,CLR,BKN,0.00,WeatherDisplay:10.37,2013-04-18 06:53:00,
2013-04-18 02:58:00,35.2,24.6,30.32,North,350,0.0,0.0,65,0.00,CLR,BKN,0.00,WeatherDisplay:10.37,2013-04-18 06:58:00,
2013-04-18 03:03:00,35.1,24.8,30.32,North,350,0.0,0.0,66,0.00,CLR,BKN,0.00,WeatherDisplay:10.37,2013-04-18 07:03:00,
2013-04-18 03:08:00,35.2,25.4,30.32,NNW,348,0.0,1.0,67,0.00,CLR,BKN,0.00,WeatherDisplay:10.37,2013-04-18 07:08:00,
2013-04-18 03:13:00,35.4,25.5,30.32,NNW,347,0.0,0.0,67,0.00,CLR,BKN,0.00,WeatherDisplay:10.37,2013-04-18 07:13:00,
2013-04-18 03:18:00,35.4,25.2,30.32,North,350,0.0,0.0,66,0.00,CLR,BKN,0.00,WeatherDisplay:10.37,2013-04-18 07:18:00,
2013-04-18 03:23:00,35.2,25.0,30.32,North,350,0.0,0.0,66,0.00,CLR,BKN,0.00,WeatherDisplay:10.37,2013-04-18 07:23:00,
2013-04-18 03:28:00,34.9,24.7,30.32,North,350,0.0,0.0,66,0.00,CLR,BKN,0.00,WeatherDisplay:10.37,2013-04-18 07:28:00,
2013-04-18 03:33:00,34.7,24.5,30.32,NNW,348,0.0,0.0,66,0.00,CLR,BKN,0.00,WeatherDisplay:10.37,2013-04-18 07:33:00,
2013-04-18 03:38:00,34.3,24.5,30.32,NNW,346,0.0,0.0,67,0.00,CLR,BKN,0.00,WeatherDisplay:10.37,2013-04-18 07:38:00,
2013-04-18 03:43:00,34.3,24.5,30.32,NNW,345,0.0,0.0,67,0.00,CLR,BKN,0.00,WeatherDisplay:10.37,2013-04-18 07:43:00,
2013-04-18 03:48:00,34.2,24.7,30.32,North,349,0.0,2.0,68,0.00,CLR,BKN,0.00,WeatherDisplay:10.37,2013-04-18 07:48:00,
2013-04-18 03:54:00,34.2,24.7,30.32,North,350,0.0,2.0,68,0.00,CLR,BKN,0.00,WeatherDisplay:10.37,2013-04-18 07:54:00,
2013-04-18 03:59:00,34.5,25.0,30.32,North,354,1.0,3.0,68,0.00,CLR,BKN,0.00,WeatherDisplay:10.37,2013-04-18 07:59:00,
2013-04-18 04:04:00,35.2,25.4,30.32,North,355,1.0,3.0,67,0.00,CLR,BKN,0.00,WeatherDisplay:10.37,2013-04-18 08:04:00,
2013-04-18 04:09:00,35.6,25.7,30.32,North,357,1.0,3.0,67,0.00,CLR,BKN,0.00,WeatherDisplay:10.37,2013-04-18 08:09:00,
2013-04-18 04:14:00,35.8,25.5,30.32,North,0,2.0,2.0,66,0.00,CLR,BKN,0.00,WeatherDisplay:10.37,2013-04-18 08:14:00,
2013-04-18 04:24:00,36.0,25.7,30.32,North,6,2.0,2.0,66,0.00,CLR,BKN,0.00,WeatherDisplay:10.37,2013-04-18 08:24:00,
2013-04-18 04:34:00,36.0,25.3,30.32,NNE,19,2.0,2.0,65,0.00,CLR,BKN,0.00,WeatherDisplay:10.37,2013-04-18 08:34:00,
2013-04-18 04:39:00,36.0,25.3,30.35,NNE,20,2.0,2.0,65,0.00,CLR,BKN,0.00,WeatherDisplay:10.37,2013-04-18 08:39:00,
2013-04-18 04:49:00,36.3,25.3,30.35,NNE,20,2.0,2.0,64,0.00,CLR,BKN,0.00,WeatherDisplay:10.37,2013-04-18 08:49:00,
2013-04-18 04:54:00,36.3,25.3,30.35,NNE,20,2.0,2.0,64,0.00,CLR,BKN,0.00,WeatherDisplay:10.37,2013-04-18 08:54:00,
2013-04-18 04:59:00,36.3,25.3,30.35,NNE,20,2.0,2.0,64,0.00,CLR,BKN,0.00,WeatherDisplay:10.37,2013-04-18 08:59:00,
2013-04-18 05:04:00,36.3,24.9,30.35,NNE,20,2.0,2.0,63,0.00,CLR,BKN,0.00,WeatherDisplay:10.37,2013-04-18 09:04:00,
2013-04-18 05:09:00,36.3,24.9,30.35,NNE,20,2.0,2.0,63,0.00,CLR,BKN,0.00,WeatherDisplay:10.37,2013-04-18 09:09:00,
2013-04-18 05:14:00,36.3,24.9,30.35,NNE,20,2.0,2.0,63,0.00,CLR,BKN,0.00,WeatherDisplay:10.37,2013-04-18 09:14:00,
2013-04-18 05:19:00,36.1,24.7,30.35,NNE,20,2.0,5.0,63,0.00,CLR,BKN,0.00,WeatherDisplay:10.37,2013-04-18 09:19:00,
2013-04-18 05:24:00,36.0,24.6,30.35,NNE,20,2.0,5.0,63,0.00,CLR,BKN,0.00,WeatherDisplay:10.37,2013-04-18 09:24:00,
2013-04-18 05:29:00,36.0,24.6,30.35,NNE,20,2.0,3.0,63,0.00,CLR,BKN,0.00,WeatherDisplay:10.37,2013-04-18 09:29:00,
2013-04-18 05:34:00,36.3,24.9,30.32,NNE,22,2.0,2.0,63,0.00,CLR,BKN,0.00,WeatherDisplay:10.37,2013-04-18 09:34:00,
2013-04-18 05:39:00,36.3,24.9,30.32,NNE,26,2.0,5.0,63,0.00,CLR,BKN,0.00,WeatherDisplay:10.37,2013-04-18 09:39:00,
2013-04-18 05:44:00,36.5,24.7,30.32,NNE,30,2.0,3.0,62,0.00,CLR,BKN,0.00,WeatherDisplay:10.37,2013-04-18 09:44:00,
2013-04-18 05:49:00,36.7,24.5,30.32,NNE,30,2.0,3.0,61,0.00,CLR,BKN,0.00,WeatherDisplay:10.37,2013-04-18 09:49:00,
2013-04-18 05:54:00,36.7,24.5,30.32,NNE,30,2.0,2.0,61,0.00,CLR,BKN,0.00,WeatherDisplay:10.37,2013-04-18 09:54:00,
2013-04-18 05:59:00,36.7,24.5,30.32,NNE,30,2.0,2.0,61,0.00,CLR,BKN,0.00,WeatherDisplay:10.37,2013-04-18 09:59:00,
2013-04-18 06:04:00,36.7,24.5,30.32,NNE,30,2.0,2.0,61,0.00,CLR,BKN,0.00,WeatherDisplay:10.37,2013-04-18 10:04:00,
2013-04-18 06:09:00,36.3,24.1,30.32,NNE,30,2.0,2.0,61,0.00,CLR,BKN,0.00,WeatherDisplay:10.37,2013-04-18 10:09:00,
2013-04-18 06:14:00,36.5,24.3,30.32,NNE,30,2.0,2.0,61,0.00,CLR,BKN,0.00,WeatherDisplay:10.37,2013-04-18 10:14:00,
2013-04-18 06:24:00,36.7,24.5,30.32,NNE,30,2.0,3.0,61,0.00,CLR,BKN,0.00,WeatherDisplay:10.37,2013-04-18 10:24:00,
2013-04-18 06:29:00,36.9,24.7,30.32,NNE,30,2.0,2.0,61,0.00,CLR,BKN,0.00,WeatherDisplay:10.37,2013-04-18 10:29:00,
2013-04-18 06:34:00,37.0,24.8,30.35,NNE,30,2.0,2.0,61,0.00,CLR,BKN,0.00,WeatherDisplay:10.37,2013-04-18 10:34:00,
2013-04-18 06:44:00,37.2,24.6,30.35,NNE,30,2.0,2.0,60,0.00,CLR,BKN,0.00,WeatherDisplay:10.37,2013-04-18 10:44:00,
2013-04-18 06:49:00,37.8,25.1,30.35,NNE,30,2.0,3.0,60,0.00,CLR,BKN,0.00,WeatherDisplay:10.37,2013-04-18 10:49:00,
2013-04-18 06:54:00,37.9,24.9,30.35,NNE,30,2.0,3.0,59,0.00,CLR,BKN,0.00,WeatherDisplay:10.37,2013-04-18 10:54:00,
2013-04-18 06:58:00,38.1,25.0,30.35,NNE,30,2.0,2.0,59,0.00,CLR,BKN,0.00,WeatherDisplay:10.37,2013-04-18 10:58:00,
2013-04-18 07:03:00,38.5,25.4,30.35,NNE,32,1.0,0.0,59,0.00,CLR,BKN,0.00,WeatherDisplay:10.37,2013-04-18 11:03:00,
2013-04-18 07:08:00,38.7,25.6,30.35,NE,49,1.0,3.0,59,0.00,CLR,BKN,0.00,WeatherDisplay:10.37,2013-04-18 11:08:00,
2013-04-18 07:13:00,39.2,25.6,30.35,ENE,68,1.0,2.0,58,0.00,CLR,BKN,0.00,WeatherDisplay:10.37,2013-04-18 11:13:00,
2013-04-18 07:18:00,39.4,25.8,30.35,East,83,1.0,2.0,58,0.00,CLR,BKN,0.00,WeatherDisplay:10.37,2013-04-18 11:18:00,
2013-04-18 07:23:00,39.6,26.0,30.35,ENE,71,2.0,2.0,58,0.00,CLR,BKN,0.00,WeatherDisplay:10.37,2013-04-18 11:23:00,
2013-04-18 07:28:00,40.1,26.5,30.38,NE,54,2.0,3.0,58,0.00,CLR,BKN,0.00,WeatherDisplay:10.37,2013-04-18 11:28:00,
2013-04-18 07:33:00,40.5,26.8,30.38,ENE,63,2.0,4.0,58,0.00,CLR,BKN,0.00,WeatherDisplay:10.37,2013-04-18 11:33:00,
2013-04-18 07:38:00,40.5,26.8,30.38,ENE,72,2.0,4.0,58,0.00,CLR,BKN,0.00,WeatherDisplay:10.37,2013-04-18 11:38:00,
2013-04-18 07:43:00,40.8,26.7,30.38,East,97,2.0,3.0,57,0.00,CLR,BKN,0.00,WeatherDisplay:10.37,2013-04-18 11:43:00,
2013-04-18 07:48:00,41.4,27.3,30.38,ESE,115,2.0,3.0,57,0.00,CLR,BKN,0.00,WeatherDisplay:10.37,2013-04-18 11:48:00,
2013-04-18 07:53:00,41.5,27.4,30.38,ESE,105,2.0,2.0,57,0.00,CLR,BKN,0.00,WeatherDisplay:10.37,2013-04-18 11:53:00,
2013-04-18 07:58:00,42.3,28.1,30.38,ESE,109,2.0,5.0,57,0.00,CLR,BKN,0.00,WeatherDisplay:10.37,2013-04-18 11:58:00,
2013-04-18 08:03:00,43.0,28.3,30.38,ENE,74,2.0,3.0,56,0.00,CLR,BKN,0.00,WeatherDisplay:10.37,2013-04-18 12:03:00,
2013-04-18 08:08:00,43.9,28.7,30.38,ENE,71,2.0,6.0,55,0.00,CLR,BKN,0.00,WeatherDisplay:10.37,2013-04-18 12:08:00,
2013-04-18 08:13:00,44.8,29.1,30.38,ESE,103,3.0,6.0,54,0.00,CLR,BKN,0.00,WeatherDisplay:10.37,2013-04-18 12:13:00,
2013-04-18 08:18:00,45.3,29.2,30.35,ESE,103,3.0,6.0,53,0.00,CLR,BKN,0.00,WeatherDisplay:10.37,2013-04-18 12:18:00,
2013-04-18 08:23:00,45.3,29.2,30.35,ESE,104,5.0,10.0,53,0.00,CLR,BKN,0.00,WeatherDisplay:10.37,2013-04-18 12:23:00,
2013-04-18 08:28:00,46.2,29.5,30.35,SE,130,6.0,6.0,52,0.00,CLR,BKN,0.00,WeatherDisplay:10.37,2013-04-18 12:28:00,
2013-04-18 08:33:00,46.6,29.9,30.35,SE,145,6.0,6.0,52,0.00,CLR,BKN,0.00,WeatherDisplay:10.37,2013-04-18 12:33:00,
2013-04-18 08:43:00,48.4,30.1,30.35,ESE,119,6.0,8.0,49,0.00,CLR,BKN,0.00,WeatherDisplay:10.37,2013-04-18 12:43:00,
2013-04-18 08:48:00,48.7,29.9,30.35,ESE,118,7.0,8.0,48,0.00,CLR,BKN,0.00,WeatherDisplay:10.37,2013-04-18 12:48:00,
2013-04-18 08:53:00,49.1,29.7,30.35,ESE,106,7.0,12.0,47,0.00,CLR,BKN,0.00,WeatherDisplay:10.37,2013-04-18 12:53:00,
2013-04-18 09:03:00,50.2,30.2,30.35,ESE,117,9.0,10.0,46,0.00,CLR,BKN,0.00,WeatherDisplay:10.37,2013-04-18 13:03:00,
2013-04-18 09:08:00,50.5,30.5,30.32,SE,126,9.0,9.0,46,0.00,CLR,BKN,0.00,WeatherDisplay:10.37,2013-04-18 13:08:00,
2013-04-18 09:13:00,51.3,31.7,30.35,SSE,148,9.0,9.0,47,0.00,CLR,BKN,0.00,WeatherDisplay:10.37,2013-04-18 13:13:00,
2013-04-18 09:18:00,51.8,31.7,30.35,SE,138,9.0,9.0,46,0.00,CLR,BKN,0.00,WeatherDisplay:10.37,2013-04-18 13:18:00,
2013-04-18 09:23:00,52.7,32.5,30.35,SE,132,8.0,8.0,46,0.00,CLR,BKN,0.00,WeatherDisplay:10.37,2013-04-18 13:23:00,
2013-04-18 09:28:00,53.2,32.4,30.35,SE,133,7.0,7.0,45,0.00,CLR,BKN,0.00,WeatherDisplay:10.37,2013-04-18 13:28:00,
2013-04-18 09:33:00,53.4,32.0,30.35,ESE,109,7.0,9.0,44,0.00,CLR,BKN,0.00,WeatherDisplay:10.37,2013-04-18 13:33:00,
2013-04-18 09:38:00,53.6,31.6,30.35,ESE,107,7.0,11.0,43,0.00,CLR,BKN,0.00,WeatherDisplay:10.37,2013-04-18 13:38:00,
2013-04-18 09:48:00,54.0,32.5,30.35,ESE,123,9.0,11.0,44,0.00,CLR,BKN,0.00,WeatherDisplay:10.37,2013-04-18 13:48:00,
2013-04-18 09:53:00,54.3,32.8,30.35,SE,132,9.0,11.0,44,0.00,CLR,BKN,0.00,WeatherDisplay:10.37,2013-04-18 13:53:00,
2013-04-18 10:03:00,55.2,33.1,30.35,SE,131,7.0,8.0,43,0.00,CLR,BKN,0.00,WeatherDisplay:10.37,2013-04-18 14:03:00,
2013-04-18 10:08:00,55.4,32.7,30.35,ESE,117,8.0,10.0,42,0.00,CLR,BKN,0.00,WeatherDisplay:10.37,2013-04-18 14:08:00,
2013-04-18 10:13:00,55.6,33.4,30.32,ESE,116,7.0,10.0,43,0.00,CLR,BKN,0.00,WeatherDisplay:10.37,2013-04-18 14:13:00,
2013-04-18 10:23:00,56.8,34.0,30.32,SE,138,7.0,7.0,42,0.00,CLR,BKN,0.00,WeatherDisplay:10.37,2013-04-18 14:23:00,
2013-04-18 10:28:00,57.7,34.2,30.32,SE,134,7.0,9.0,41,0.00,CLR,BKN,0.00,WeatherDisplay:10.37,2013-04-18 14:28:00,
2013-04-18 10:33:00,58.3,34.0,30.32,SE,139,7.0,10.0,40,0.00,CLR,BKN,0.00,WeatherDisplay:10.37,2013-04-18 14:33:00,
2013-04-18 10:38:00,58.8,33.2,30.32,SE,143,7.0,11.0,38,0.00,CLR,BKN,0.00,WeatherDisplay:10.37,2013-04-18 14:38:00,
2013-04-18 10:48:00,59.5,33.2,30.32,SE,129,8.0,8.0,37,0.00,CLR,BKN,0.00,WeatherDisplay:10.37,2013-04-18 14:48:00,
2013-04-18 10:54:00,59.9,33.5,30.32,SE,130,8.0,8.0,37,0.00,CLR,BKN,0.00,WeatherDisplay:10.37,2013-04-18 14:54:00,
2013-04-18 10:59:00,59.9,32.9,30.32,SE,133,7.0,7.0,36,0.00,CLR,BKN,0.00,WeatherDisplay:10.37,2013-04-18 14:59:00,
2013-04-18 11:04:00,59.2,32.9,30.32,SE,130,7.0,11.0,37,0.00,CLR,BKN,0.00,WeatherDisplay:10.37,2013-04-18 15:04:00,
2013-04-18 11:09:00,58.8,32.6,30.32,SE,140,7.0,11.0,37,0.00,CLR,BKN,0.00,WeatherDisplay:10.37,2013-04-18 15:09:00,
2013-04-18 11:14:00,58.5,32.9,30.32,SSE,165,8.0,8.0,38,0.00,CLR,BKN,0.00,WeatherDisplay:10.37,2013-04-18 15:14:00,
2013-04-18 11:24:00,59.4,33.1,30.32,SE,138,9.0,11.0,37,0.00,CLR,BKN,0.00,WeatherDisplay:10.37,2013-04-18 15:24:00,
2013-04-18 11:29:00,59.7,34.0,30.32,SE,139,8.0,8.0,38,0.00,CLR,BKN,0.00,WeatherDisplay:10.37,2013-04-18 15:29:00,
2013-04-18 11:34:00,60.8,34.3,30.32,SE,138,8.0,9.0,37,0.00,CLR,BKN,0.00,WeatherDisplay:10.37,2013-04-18 15:34:00,
2013-04-18 11:44:00,61.3,34.8,30.32,SSE,150,8.0,14.0,37,0.00,CLR,BKN,0.00,WeatherDisplay:10.37,2013-04-18 15:44:00,
2013-04-18 11:49:00,61.3,34.8,30.32,SSE,164,9.0,14.0,37,0.00,CLR,BKN,0.00,WeatherDisplay:10.37,2013-04-18 15:49:00,
2013-04-18 11:54:00,61.7,35.1,30.32,SSE,158,9.0,9.0,37,0.00,CLR,BKN,0.00,WeatherDisplay:10.37,2013-04-18 15:54:00,
2013-04-18 12:04:00,62.6,34.5,30.32,South,174,9.0,12.0,35,0.00,CLR,BKN,0.00,WeatherDisplay:10.37,2013-04-18 16:04:00,
2013-04-18 12:09:00,62.8,34.7,30.32,South,172,9.0,9.0,35,0.00,CLR,BKN,0.00,WeatherDisplay:10.37,2013-04-18 16:09:00,
2013-04-18 12:19:00,62.1,33.3,30.29,South,181,9.0,12.0,34,0.00,CLR,BKN,0.00,WeatherDisplay:10.37,2013-04-18 16:19:00,
2013-04-18 12:24:00,61.5,32.9,30.29,SSW,198,9.0,10.0,34,0.00,CLR,BKN,0.00,WeatherDisplay:10.37,2013-04-18 16:24:00,
2013-04-18 12:29:00,61.7,32.3,30.29,South,190,10.0,13.0,33,0.00,CLR,BKN,0.00,WeatherDisplay:10.37,2013-04-18 16:29:00,
2013-04-18 12:34:00,62.2,33.5,30.29,South,182,10.0,13.0,34,0.00,CLR,BKN,0.00,WeatherDisplay:10.37,2013-04-18 16:34:00,
2013-04-18 12:39:00,62.8,34.0,30.29,South,182,10.0,12.0,34,0.00,CLR,BKN,0.00,WeatherDisplay:10.37,2013-04-18 16:39:00,
2013-04-18 12:44:00,62.8,33.2,30.29,South,174,9.0,12.0,33,0.00,CLR,BKN,0.00,WeatherDisplay:10.37,2013-04-18 16:44:00,
2013-04-18 12:49:00,62.8,33.2,30.29,SE,137,9.0,12.0,33,0.00,CLR,BKN,0.00,WeatherDisplay:10.37,2013-04-18 16:49:00,
2013-04-18 12:54:00,63.1,32.8,30.29,SE,138,9.0,11.0,32,0.00,CLR,BKN,0.00,WeatherDisplay:10.37,2013-04-18 16:54:00,
2013-04-18 12:59:00,63.1,34.3,30.26,SSE,167,9.0,11.0,34,0.00,CLR,BKN,0.00,WeatherDisplay:10.37,2013-04-18 16:59:00,
2013-04-18 13:04:00,63.5,32.3,30.26,South,178,9.0,12.0,31,0.00,CLR,BKN,0.00,WeatherDisplay:10.37,2013-04-18 17:04:00,
2013-04-18 13:09:00,63.1,33.5,30.26,SSE,163,9.0,12.0,33,0.00,CLR,BKN,0.00,WeatherDisplay:10.37,2013-04-18 17:09:00,
2013-04-18 13:14:00,63.7,33.2,30.26,SE,140,9.0,11.0,32,0.00,CLR,BKN,0.00,WeatherDisplay:10.37,2013-04-18 17:14:00,
2013-04-18 13:19:00,63.5,32.3,30.26,South,176,9.0,15.0,31,0.00,CLR,BKN,0.00,WeatherDisplay:10.37,2013-04-18 17:19:00,
2013-04-18 13:24:00,63.1,33.5,30.26,South,185,10.0,15.0,33,0.00,CLR,BKN,0.00,WeatherDisplay:10.37,2013-04-18 17:24:00,
2013-04-18 13:34:00,63.0,33.4,30.26,SSE,158,10.0,12.0,33,0.00,CLR,BKN,0.00,WeatherDisplay:10.37,2013-04-18 17:34:00,
2013-04-18 13:44:00,63.3,33.7,30.26,SSE,165,10.0,14.0,33,0.00,CLR,BKN,0.00,WeatherDisplay:10.37,2013-04-18 17:44:00,
2013-04-18 13:49:00,63.3,33.7,30.26,SSE,168,10.0,12.0,33,0.00,CLR,BKN,0.00,WeatherDisplay:10.37,2013-04-18 17:49:00,
2013-04-18 13:54:00,63.1,32.8,30.26,SSE,161,10.0,13.0,32,0.00,CLR,BKN,0.00,WeatherDisplay:10.37,2013-04-18 17:54:00,
2013-04-18 14:03:00,62.8,33.2,30.26,South,176,10.0,13.0,33,0.00,CLR,BKN,0.00,WeatherDisplay:10.37,2013-04-18 18:03:00,
2013-04-18 14:08:00,62.8,32.5,30.26,South,169,10.0,12.0,32,0.00,CLR,BKN,0.00,WeatherDisplay:10.37,2013-04-18 18:08:00,
2013-04-18 14:13:00,62.8,34.0,30.26,South,171,10.0,13.0,34,0.00,CLR,BKN,0.00,WeatherDisplay:10.37,2013-04-18 18:13:00,
2013-04-18 14:18:00,63.1,33.5,30.26,SSE,167,10.0,13.0,33,0.00,CLR,BKN,0.00,WeatherDisplay:10.37,2013-04-18 18:18:00,
2013-04-18 14:23:00,63.1,33.5,30.26,SSE,161,10.0,10.0,33,0.00,CLR,BKN,0.00,WeatherDisplay:10.37,2013-04-18 18:23:00,
2013-04-18 14:28:00,63.0,33.4,30.26,SSE,168,10.0,13.0,33,0.00,CLR,BKN,0.00,WeatherDisplay:10.37,2013-04-18 18:28:00,
2013-04-18 14:33:00,63.1,32.0,30.26,South,173,9.0,13.0,31,0.00,CLR,BKN,0.00,WeatherDisplay:10.37,2013-04-18 18:33:00,
2013-04-18 14:38:00,63.1,32.0,30.23,South,171,10.0,11.0,31,0.00,CLR,BKN,0.00,WeatherDisplay:10.37,2013-04-18 18:38:00,
2013-04-18 14:48:00,62.6,33.1,30.23,South,175,9.0,11.0,33,0.00,CLR,BKN,0.00,WeatherDisplay:10.37,2013-04-18 18:48:00,
2013-04-18 14:53:00,62.8,33.2,30.23,South,176,9.0,14.0,33,0.00,CLR,BKN,0.00,WeatherDisplay:10.37,2013-04-18 18:53:00,
2013-04-18 14:58:00,62.8,32.5,30.23,South,187,10.0,13.0,32,0.00,CLR,BKN,0.00,WeatherDisplay:10.37,2013-04-18 18:58:00,
2013-04-18 15:03:00,62.1,32.6,30.23,South,174,12.0,14.0,33,0.00,CLR,BKN,0.00,WeatherDisplay:10.37,2013-04-18 19:03:00,
2013-04-18 15:08:00,61.9,32.4,30.23,SSE,165,10.0,13.0,33,0.00,CLR,BKN,0.00,WeatherDisplay:10.37,2013-04-18 19:08:00,
2013-04-18 15:13:00,61.9,32.4,30.23,SSE,159,10.0,10.0,33,0.00,CLR,BKN,0.00,WeatherDisplay:10.37,2013-04-18 19:13:00,
2013-04-18 15:18:00,62.1,32.6,30.23,SSE,168,10.0,13.0,33,0.00,CLR,BKN,0.00,WeatherDisplay:10.37,2013-04-18 19:18:00,
2013-04-18 15:23:00,62.1,32.6,30.23,South,179,9.0,12.0,33,0.00,CLR,BKN,0.00,WeatherDisplay:10.37,2013-04-18 19:23:00,
2013-04-18 15:28:00,62.1,32.6,30.23,South,190,9.0,11.0,33,0.00,CLR,BKN,0.00,WeatherDisplay:10.37,2013-04-18 19:28:00,
2013-04-18 15:33:00,61.7,33.0,30.23,SSW,204,10.0,12.0,34,0.00,CLR,BKN,0.00,WeatherDisplay:10.37,2013-04-18 19:33:00,
2013-04-18 15:38:00,61.5,32.1,30.23,SSW,201,9.0,12.0,33,0.00,CLR,BKN,0.00,WeatherDisplay:10.37,2013-04-18 19:38:00,
2013-04-18 15:43:00,61.0,32.4,30.20,SSW,205,9.0,9.0,34,0.00,CLR,BKN,0.00,WeatherDisplay:10.37,2013-04-18 19:43:00,
2013-04-18 15:48:00,60.8,31.5,30.20,South,185,9.0,14.0,33,0.00,CLR,BKN,0.00,WeatherDisplay:10.37,2013-04-18 19:48:00,
2013-04-18 15:58:00,60.8,31.5,30.20,South,181,9.0,9.0,33,0.00,CLR,BKN,0.00,WeatherDisplay:10.37,2013-04-18 19:58:00,
2013-04-18 16:03:00,60.3,31.8,30.20,SSW,201,10.0,15.0,34,0.00,CLR,BKN,0.00,WeatherDisplay:10.37,2013-04-18 20:03:00,
2013-04-18 16:08:00,60.1,31.6,30.20,SSW,201,9.0,9.0,34,0.00,CLR,BKN,0.00,WeatherDisplay:10.37,2013-04-18 20:08:00,
2013-04-18 16:13:00,59.5,31.1,30.20,SSW,198,9.0,13.0,34,0.00,CLR,BKN,0.00,WeatherDisplay:10.37,2013-04-18 20:13:00,
2013-04-18 16:18:00,59.5,31.1,30.20,South,190,9.0,13.0,34,0.00,CLR,BKN,0.00,WeatherDisplay:10.37,2013-04-18 20:18:00,
2013-04-18 16:23:00,59.5,31.8,30.20,SSW,194,10.0,13.0,35,0.00,CLR,BKN,0.00,WeatherDisplay:10.37,2013-04-18 20:23:00,
2013-04-18 16:28:00,59.2,31.5,30.20,SSW,196,9.0,9.0,35,0.00,CLR,BKN,0.00,WeatherDisplay:10.37,2013-04-18 20:28:00,
2013-04-18 16:33:00,58.8,30.5,30.20,SSW,196,9.0,14.0,34,0.00,CLR,BKN,0.00,WeatherDisplay:10.37,2013-04-18 20:33:00,
2013-04-18 16:38:00,58.8,31.2,30.20,SSW,199,9.0,10.0,35,0.00,CLR,BKN,0.00,WeatherDisplay:10.37,2013-04-18 20:38:00,
2013-04-18 16:48:00,59.2,30.8,30.20,SSW,200,9.0,13.0,34,0.00,CLR,BKN,0.00,WeatherDisplay:10.37,2013-04-18 20:48:00,
2013-04-18 16:53:00,58.8,30.5,30.20,SSW,205,10.0,13.0,34,0.00,CLR,BKN,0.00,WeatherDisplay:10.37,2013-04-18 20:53:00,
2013-04-18 16:58:00,58.6,31.0,30.20,SSW,201,10.0,10.0,35,0.00,CLR,BKN,0.00,WeatherDisplay:10.37,2013-04-18 20:58:00,
2013-04-18 17:03:00,58.1,30.6,30.20,South,189,9.0,9.0,35,0.00,CLR,BKN,0.00,WeatherDisplay:10.37,2013-04-18 21:03:00,
2013-04-18 17:08:00,57.9,29.7,30.20,South,191,10.0,12.0,34,0.00,CLR,BKN,0.00,WeatherDisplay:10.37,2013-04-18 21:08:00,
2013-04-18 17:18:00,57.2,29.8,30.20,SSW,193,8.0,10.0,35,0.00,CLR,BKN,0.00,WeatherDisplay:10.37,2013-04-18 21:18:00,
2013-04-18 17:23:00,57.2,30.5,30.20,SSW,198,8.0,10.0,36,0.00,CLR,BKN,0.00,WeatherDisplay:10.37,2013-04-18 21:23:00,
2013-04-18 17:28:00,56.8,28.7,30.20,SSW,206,10.0,13.0,34,0.00,CLR,BKN,0.00,WeatherDisplay:10.37,2013-04-18 21:28:00,
2013-04-18 17:33:00,56.8,28.7,30.20,SSW,194,9.0,11.0,34,0.00,CLR,BKN,0.00,WeatherDisplay:10.37,2013-04-18 21:33:00,
2013-04-18 17:38:00,56.8,28.7,30.20,SSW,194,9.0,11.0,34,0.00,CLR,BKN,0.00,WeatherDisplay:10.37,2013-04-18 21:38:00,
2013-04-18 17:49:00,55.9,29.3,30.20,South,191,9.0,11.0,36,0.00,CLR,BKN,0.00,WeatherDisplay:10.37,2013-04-18 21:49:00,
2013-04-18 17:54:00,55.9,29.3,30.20,SSW,192,9.0,9.0,36,0.00,CLR,BKN,0.00,WeatherDisplay:10.37,2013-04-18 21:54:00,
2013-04-18 17:59:00,55.4,29.5,30.20,South,190,9.0,9.0,37,0.00,CLR,BKN,0.00,WeatherDisplay:10.37,2013-04-18 21:59:00,
2013-04-18 18:04:00,55.2,29.4,30.20,SSW,196,8.0,12.0,37,0.00,CLR,BKN,0.00,WeatherDisplay:10.37,2013-04-18 22:04:00,
2013-04-18 18:09:00,55.0,29.2,30.17,SSW,197,9.0,9.0,37,0.00,CLR,BKN,0.00,WeatherDisplay:10.37,2013-04-18 22:09:00,
2013-04-18 18:14:00,54.9,29.1,30.17,South,184,8.0,8.0,37,0.00,CLR,BKN,0.00,WeatherDisplay:10.37,2013-04-18 22:14:00,
2013-04-18 18:24:00,54.5,28.7,30.17,South,182,7.0,10.0,37,0.00,CLR,BKN,0.00,WeatherDisplay:10.37,2013-04-18 22:24:00,
2013-04-18 18:29:00,54.3,28.6,30.17,South,186,7.0,10.0,37,0.00,CLR,BKN,0.00,WeatherDisplay:10.37,2013-04-18 22:29:00,
2013-04-18 18:39:00,54.1,29.1,30.17,South,173,8.0,10.0,38,0.00,CLR,BKN,0.00,WeatherDisplay:10.37,2013-04-18 22:39:00,
2013-04-18 18:44:00,54.0,28.9,30.17,South,181,9.0,10.0,38,0.00,CLR,BKN,0.00,WeatherDisplay:10.37,2013-04-18 22:44:00,
2013-04-18 18:49:00,53.8,28.7,30.17,South,183,8.0,10.0,38,0.00,CLR,BKN,0.00,WeatherDisplay:10.37,2013-04-18 22:49:00,
2013-04-18 18:54:00,53.8,28.7,30.17,South,175,8.0,10.0,38,0.00,CLR,BKN,0.00,WeatherDisplay:10.37,2013-04-18 22:54:00,
2013-04-18 18:59:00,53.6,29.2,30.17,South,178,8.0,10.0,39,0.00,CLR,BKN,0.00,WeatherDisplay:10.37,2013-04-18 22:59:00,
2013-04-18 19:04:00,53.6,29.2,30.17,South,173,8.0,10.0,39,0.00,CLR,BKN,0.00,WeatherDisplay:10.37,2013-04-18 23:04:00,
2013-04-18 19:09:00,53.6,29.2,30.17,South,173,8.0,11.0,39,0.00,CLR,BKN,0.00,WeatherDisplay:10.37,2013-04-18 23:09:00,
2013-04-18 19:14:00,53.4,28.4,30.17,South,183,9.0,10.0,38,0.00,CLR,BKN,0.00,WeatherDisplay:10.37,2013-04-18 23:14:00,
2013-04-18 19:19:00,53.1,28.1,30.17,South,173,9.0,10.0,38,0.00,CLR,BKN,0.00,WeatherDisplay:10.37,2013-04-18 23:19:00,
2013-04-18 19:24:00,53.1,27.4,30.17,South,169,9.0,11.0,37,0.00,CLR,BKN,0.00,WeatherDisplay:10.37,2013-04-18 23:24:00,
2013-04-18 19:29:00,52.9,27.3,30.17,South,181,9.0,10.0,37,0.00,CLR,BKN,0.00,WeatherDisplay:10.37,2013-04-18 23:29:00,
2013-04-18 19:34:00,52.5,27.6,30.17,South,182,10.0,14.0,38,0.00,CLR,BKN,0.00,WeatherDisplay:10.37,2013-04-18 23:34:00,
2013-04-18 19:39:00,52.5,27.6,30.17,South,183,10.0,10.0,38,0.00,CLR,BKN,0.00,WeatherDisplay:10.37,2013-04-18 23:39:00,
2013-04-18 19:44:00,52.3,27.5,30.17,South,184,9.0,10.0,38,0.00,CLR,BKN,0.00,WeatherDisplay:10.37,2013-04-18 23:44:00,
2013-04-18 19:49:00,52.3,26.8,30.17,South,182,10.0,16.0,37,0.00,CLR,BKN,0.00,WeatherDisplay:10.37,2013-04-18 23:49:00,
2013-04-18 19:54:00,52.2,26.6,30.17,South,181,12.0,16.0,37,0.00,CLR,BKN,0.00,WeatherDisplay:10.37,2013-04-18 23:54:00,
2013-04-18 19:59:00,52.2,27.3,30.17,South,173,12.0,12.0,38,0.00,CLR,BKN,0.00,WeatherDisplay:10.37,2013-04-18 23:59:00,
2013-04-18 20:04:00,52.0,27.1,30.14,South,174,12.0,12.0,38,0.00,CLR,BKN,0.00,WeatherDisplay:10.37,2013-04-19 00:04:00,
2013-04-18 20:09:00,51.8,27.0,30.14,South,169,12.0,13.0,38,0.00,CLR,BKN,0.00,WeatherDisplay:10.37,2013-04-19 00:09:00,
2013-04-18 20:19:00,51.6,27.4,30.14,South,187,10.0,10.0,39,0.00,CLR,BKN,0.00,WeatherDisplay:10.37,2013-04-19 00:19:00,
2013-04-18 20:24:00,51.6,27.4,30.14,South,180,9.0,9.0,39,0.00,CLR,BKN,0.00,WeatherDisplay:10.37,2013-04-19 00:24:00,
2013-04-18 20:29:00,51.3,27.1,30.14,South,172,9.0,10.0,39,0.00,CLR,BKN,0.00,WeatherDisplay:10.37,2013-04-19 00:29:00,
2013-04-18 20:34:00,51.3,27.1,30.14,South,181,9.0,12.0,39,0.00,CLR,BKN,0.00,WeatherDisplay:10.37,2013-04-19 00:34:00,
2013-04-18 20:44:00,51.3,27.7,30.14,South,190,9.0,9.0,40,0.00,CLR,BKN,0.00,WeatherDisplay:10.37,2013-04-19 00:44:00,
2013-04-18 20:49:00,50.9,27.4,30.14,South,187,9.0,14.0,40,0.00,CLR,BKN,0.00,WeatherDisplay:10.37,2013-04-19 00:49:00,
2013-04-18 20:54:00,50.9,27.4,30.14,South,183,10.0,12.0,40,0.00,CLR,BKN,0.00,WeatherDisplay:10.37,2013-04-19 00:54:00,
2013-04-18 20:59:00,50.9,27.4,30.14,South,190,10.0,10.0,40,0.00,CLR,BKN,0.00,WeatherDisplay:10.37,2013-04-19 00:59:00,
2013-04-18 21:04:00,50.7,27.8,30.14,South,190,10.0,13.0,41,0.00,CLR,BKN,0.00,WeatherDisplay:10.37,2013-04-19 01:04:00,
2013-04-18 21:13:00,50.5,28.3,30.14,SSW,207,9.0,12.0,42,0.00,CLR,BKN,0.00,WeatherDisplay:10.37,2013-04-19 01:13:00,
2013-04-18 21:18:00,50.4,28.7,30.14,SSW,196,9.0,12.0,43,0.00,CLR,BKN,0.00,WeatherDisplay:10.37,2013-04-19 01:18:00,
2013-04-18 21:23:00,50.4,29.2,30.14,South,189,9.0,9.0,44,0.00,CLR,BKN,0.00,WeatherDisplay:10.37,2013-04-19 01:23:00,
2013-04-18 21:28:00,50.2,29.1,30.14,SSW,192,9.0,11.0,44,0.00,CLR,BKN,0.00,WeatherDisplay:10.37,2013-04-19 01:28:00,
2013-04-18 21:33:00,50.2,30.7,30.14,SSW,192,7.0,8.0,47,0.00,CLR,BKN,0.00,WeatherDisplay:10.37,2013-04-19 01:33:00,
2013-04-18 21:38:00,50.0,31.1,30.14,South,190,8.0,8.0,48,0.00,CLR,BKN,0.00,WeatherDisplay:10.37,2013-04-19 01:38:00,
2013-04-18 21:43:00,50.0,31.1,30.14,SSW,196,7.0,8.0,48,0.00,CLR,BKN,0.00,WeatherDisplay:10.37,2013-04-19 01:43:00,
2013-04-18 21:48:00,49.8,31.4,30.14,South,186,7.0,8.0,49,0.00,CLR,BKN,0.00,WeatherDisplay:10.37,2013-04-19 01:48:00,
2013-04-18 21:53:00,49.8,32.4,30.14,South,182,7.0,7.0,51,0.00,CLR,BKN,0.00,WeatherDisplay:10.37,2013-04-19 01:53:00,
2013-04-18 21:58:00,49.6,33.7,30.11,South,186,8.0,14.0,54,0.00,CLR,BKN,0.00,WeatherDisplay:10.37,2013-04-19 01:58:00,
2013-04-18 22:08:00,49.6,36.7,30.11,SSW,195,9.0,14.0,61,0.00,CLR,BKN,0.00,WeatherDisplay:10.37,2013-04-19 02:08:00,
2013-04-18 22:13:00,49.5,36.6,30.11,SSW,200,12.0,12.0,61,0.00,CLR,BKN,0.00,WeatherDisplay:10.37,2013-04-19 02:13:00,
2013-04-18 22:18:00,49.3,37.2,30.11,SSW,195,9.0,9.0,63,0.00,CLR,BKN,0.00,WeatherDisplay:10.37,2013-04-19 02:18:00,
2013-04-18 22:23:00,49.3,37.2,30.11,SSW,192,9.0,9.0,63,0.00,CLR,BKN,0.00,WeatherDisplay:10.37,2013-04-19 02:23:00,
2013-04-18 22:28:00,49.1,38.6,30.11,SSW,196,9.0,14.0,67,0.00,CLR,BKN,0.00,WeatherDisplay:10.37,2013-04-19 02:28:00,
2013-04-18 22:33:00,49.1,39.0,30.11,SSW,196,9.0,13.0,68,0.00,CLR,BKN,0.00,WeatherDisplay:10.37,2013-04-19 02:33:00,
2013-04-18 22:38:00,48.9,39.2,30.11,SSW,198,9.0,14.0,69,0.00,CLR,BKN,0.00,WeatherDisplay:10.37,2013-04-19 02:38:00,
2013-04-18 22:48:00,48.7,40.1,30.11,SSW,194,10.0,13.0,72,0.00,CLR,BKN,0.00,WeatherDisplay:10.37,2013-04-19 02:48:00,
2013-04-18 22:53:00,48.7,40.1,30.11,SSW,195,10.0,10.0,72,0.00,CLR,BKN,0.00,WeatherDisplay:10.37,2013-04-19 02:53:00,
2013-04-18 23:03:00,48.6,40.6,30.11,SSW,198,10.0,12.0,74,0.00,CLR,BKN,0.00,WeatherDisplay:10.37,2013-04-19 03:03:00,
2013-04-18 23:08:00,48.4,40.5,30.11,SSW,199,10.0,12.0,74,0.00,CLR,BKN,0.00,WeatherDisplay:10.37,2013-04-19 03:08:00,
2013-04-18 23:18:00,48.4,40.5,30.11,SSW,196,9.0,10.0,74,0.00,CLR,BKN,0.00,WeatherDisplay:10.37,2013-04-19 03:18:00,
2013-04-18 23:23:00,48.4,40.8,30.11,South,190,9.0,9.0,75,0.00,CLR,BKN,0.00,WeatherDisplay:10.37,2013-04-19 03:23:00,
2013-04-18 23:28:00,48.4,40.5,30.11,SSW,205,9.0,9.0,74,0.00,CLR,BKN,0.00,WeatherDisplay:10.37,2013-04-19 03:28:00,
2013-04-18 23:33:00,48.4,40.5,30.11,SSW,206,7.0,7.0,74,0.00,CLR,BKN,0.00,WeatherDisplay:10.37,2013-04-19 03:33:00,
2013-04-18 23:43:00,48.2,40.6,30.11,SSW,202,5.0,5.0,75,0.00,CLR,BKN,0.00,WeatherDisplay:10.37,2013-04-19 03:43:00,
2013-04-18 23:48:00,48.2,41.7,30.11,SSW,206,5.0,10.0,78,0.00,CLR,BKN,0.00,WeatherDisplay:10.37,2013-04-19 03:48:00,
2013-04-18 23:53:00,48.2,41.3,30.11,SSW,199,5.0,10.0,77,0.00,CLR,BKN,0.00,WeatherDisplay:10.37,2013-04-19 03:53:00,
2013-04-18 23:58:00,48.2,41.7,30.11,South,179,5.0,7.0,78,0.00,CLR,BKN,0.00,WeatherDisplay:10.37,2013-04-19 03:58:00,